Flag for U.S.A. Weather past 2 weeks in Owensboro, Kentucky, U.S.A.

Now
72 °F

Fog.


Feels Like: 67 °F
Forecast: 68 / 81 °F
Wind: 5 mph from Southwest

Location: Owensboro / Daviess

Current Time: Jul 1, 2015 at 8:53:07 AM

Latest Report: Jul 1, 2015 at 7:56 AM


Visibility: 5 mi

Pressure: 29.93 "Hg

Humidity: 96%

Dew point: 71 °F

Location of OwensboroLocation

Historic Weather in Owensboro — Graph

°F

Owensboro temperature yesterday

Maximum temperature yesterday: 85 °F (at 1:56 PM)
Minimum temperature yesterday: 67 °F (at 1:56 AM)
Average temperature yesterday: 76 °F

Past Weeks' High & Low Weather Summary

 TemperatureHumidityPressure
High92 °F (Jun 23, 1:56 PM)100% (Jun 18, 2:56 AM)30.16 "Hg (Jun 18, 2:56 AM)
Low58 °F (Jun 28, 5:56 AM)36% (Jun 28, 10:56 AM)29.61 "Hg (Jun 20, 3:58 AM)
Average78 °F78%29.95 "Hg
* Reported Jun 16 6:56 AM — Jul 1 6:56 AM, Owensboro, Weather by CustomWeather, © 2015

Note: Actual official high and low records may vary slightly from our data, if they occured in-between our weather recording intervals... More about our weather records

Advertising

Owensboro weather history for previous 24 hours

 ConditionsComfort  
Time TempWeatherWind HumidityBarometerVisibility
6:56 AM
Wed, Jul 1
70 °FFog.No wind100%29.90 "Hg3 mi
5:56 AM68 °FFog.No wind100%29.89 "Hg3 mi
4:56 AM68 °FClear.3 mph100%29.87 "Hg8 mi
3:56 AM70 °FClear.No wind93%29.88 "Hg10 mi
2:56 AM70 °FClear.No wind93%29.89 "Hg10 mi
1:56 AM70 °FClear.No wind93%29.88 "Hg10 mi
12:56 AM70 °FClear.5 mph93%29.89 "Hg10 mi
11:56 PM
Tue, Jun 30
71 °FClear.6 mph91%29.89 "Hg10 mi
10:56 PM71 °FClear.3 mph91%29.89 "Hg10 mi
9:56 PM73 °FClear.No wind87%29.90 "Hg10 mi
8:56 PM73 °FClear.5 mph87%29.87 "Hg10 mi
7:56 PM76 °FSunny.5 mph79%29.86 "Hg7 mi
6:56 PM80 °FSunny.6 mph72%29.84 "Hg6 mi
5:56 PM82 °FSunny.9 mph65%29.83 "Hg10 mi
4:56 PM82 °FSunny.9 mph65%29.84 "Hg10 mi
3:56 PM83 °FSunny.12 mph61%29.84 "Hg10 mi
2:56 PM84 °FSunny.13 mph59%29.85 "Hg10 mi
1:56 PM85 °FScattered clouds.14 mph59%29.85 "Hg10 mi
12:56 PM84 °FPassing clouds.12 mph65%29.87 "Hg10 mi
11:56 AM84 °FSunny.7 mph63%29.89 "Hg10 mi
10:56 AM82 °FSunny.7 mph67%29.90 "Hg7 mi
9:56 AM81 °FSunny.12 mph67%29.90 "Hg10 mi
8:56 AM76 °FSunny.7 mph79%29.89 "Hg10 mi
Weather by CustomWeather, © 2015

See weather overviewHow to use our weather pages